Weather History for New Philadelphia, OH

Change the Weather History Date:

Wednesday, June 26, 2013

  Actual Average Record
Temperature  
Mean Temperature 75 °F 71 °F  
Max Temperature 82 °F 82 °F 99 °F (1988)
Min Temperature 67 °F 60 °F 44 °F (1967)
Degree Days  
Heating Degree Days 0 0  
Month to date heating degree days 22 33  
Since 1 June heating degree days 22 33  
Since 1 July heating degree days 5607 5642  
Cooling Degree Days 10 6  
Month to date cooling degree days 117 117  
Year to date cooling degree days 215 160  
Since 1 June cooling degree days 117 117  
Growing Degree Days 24 (Base 50)    
Moisture  
Dew Point 67 °F    
Average Humidity 80    
Maximum Humidity 93    
Minimum Humidity 67    
Precipitation  
Precipitation 1.24 in 0.10 in 2.29 in (2008)
Month to date precipitation 5.86 3.41  
Year to date precipitation 15.90 19.01  
Sea Level Pressure  
Sea Level Pressure 29.90 in    
Wind  
Wind Speed 5 mph (South)    
Max Wind Speed 13 mph    
Max Gust Speed 18 mph    
Visibility 7 miles    
Events Rain , Thunderstorm    
T = Trace of Precipitation, MM = Missing Value Source: NWS Daily Summary

Daily Weather History Graph

Daily Weather History Graph

Search for Another Location

Airport:

Trip Planner

Search our weather history database for the weather conditions in past years. The results will help you decide how hot, cold, wet, or windy it might be!

Date:

Astronomy

Jun. 26, 2013 Rise Set
Actual Time 5:56 AM EDT 9:00 PM EDT
Civil Twilight 5:23 AM EDT 9:33 PM EDT
Nautical Twilight 4:41 AM EDT 10:15 PM EDT
Astronomical Twilight 3:51 AM EDT 11:05 PM EDT
Moon 11:21 PM EDT (6/26) 9:47 AM EDT (6/26)
Length of Visible Light 16h 09m
Length of Day
15h 03m
Waning Gibbous, 85% of the Moon is Illuminated
Jun 26
Waning Gibbous
Jun 30
Last Quarter
Jul 8
New
Jul 15
First Quarter
Jul 22
Full

Hourly Weather History & Observations

Time (EDT) Temp. Heat Index Dew Point Humidity Pressure Visibility Wind Dir Wind Speed Gust Speed Precip Events Conditions
12:21 AM 69.8 °F - 66.2 °F 88% 29.90 in 1.5 mi Variable 6.9 mph - 0.12 in Rain , Thunderstorm Heavy Thunderstorms and Rain
12:33 AM 69.8 °F - 66.2 °F 88% 29.93 in 3.0 mi North 4.6 mph - 0.20 in Rain , Thunderstorm Thunderstorms and Rain
12:53 AM 69.1 °F - 66.9 °F 93% 29.90 in 8.0 mi NE 4.6 mph - 0.20 in Thunderstorm Overcast
1:05 AM 69.8 °F - 66.2 °F 88% 29.92 in 9.0 mi Calm Calm - N/A Thunderstorm Mostly Cloudy
1:30 AM 68.0 °F - 64.4 °F 88% 29.93 in 10.0 mi ENE 10.4 mph - 0.00 in Thunderstorm Overcast
1:39 AM 68.0 °F - 64.4 °F 88% 29.96 in 9.0 mi SSE 8.1 mph 18.4 mph 0.01 in Rain , Thunderstorm Light Rain
1:56 AM 68.0 °F - 64.4 °F 88% 29.94 in - Variable 4.6 mph - 0.03 in Thunderstorm Thunderstorm
2:18 AM 68.0 °F - 66.2 °F 94% 29.95 in 1.8 mi Calm Calm - 0.16 in Rain , Thunderstorm Heavy Thunderstorms and Rain
2:37 AM 66.2 °F - 66.2 °F 100% 29.96 in 1.5 mi Variable 3.5 mph - 0.45 in Rain , Thunderstorm Heavy Thunderstorms and Rain
2:44 AM 66.2 °F - 66.2 °F 100% 29.96 in 2.0 mi East 3.5 mph - 0.47 in Rain , Thunderstorm Thunderstorms and Rain
2:49 AM 66.2 °F - 66.2 °F 100% 29.97 in 2.5 mi NNE 5.8 mph - 0.55 in Rain , Thunderstorm Thunderstorms and Rain
2:53 AM 66.9 °F - 66.0 °F 97% 29.93 in 1.8 mi NE 8.1 mph - 0.59 in Rain , Thunderstorm Heavy Thunderstorms and Rain
3:00 AM 66.2 °F - 66.2 °F 100% 29.96 in 2.5 mi ENE 9.2 mph - 0.03 in Rain , Thunderstorm Thunderstorms and Rain
3:08 AM 66.2 °F - 66.2 °F 100% 29.95 in 6.0 mi East 10.4 mph - 0.04 in Rain , Thunderstorm Light Thunderstorms and Rain
3:42 AM 68.0 °F - 66.2 °F 94% 29.93 in 8.0 mi ESE 4.6 mph - 0.11 in Rain , Thunderstorm Light Thunderstorms and Rain
3:53 AM 68.0 °F - 66.0 °F 93% 29.92 in 7.0 mi NW 6.9 mph - 0.12 in Rain , Thunderstorm Light Thunderstorms and Rain
4:12 AM 68.0 °F - 66.2 °F 94% 29.95 in 6.0 mi NNW 4.6 mph - 0.02 in Rain Light Rain
4:53 AM 66.9 °F - 66.0 °F 97% 29.92 in 7.0 mi SSE 4.6 mph - 0.10 in Rain Light Rain
5:14 AM 68.0 °F - 66.2 °F 94% 29.93 in 7.0 mi SE 6.9 mph - 0.02 in Rain Light Rain
5:38 AM 66.2 °F - 66.2 °F 100% 29.91 in 10.0 mi SE 9.2 mph - 0.02 in   Mostly Cloudy
5:53 AM 66.9 °F - 64.9 °F 93% 29.88 in 10.0 mi SE 9.2 mph - 0.02 in   Scattered Clouds
6:36 AM 66.2 °F - 64.4 °F 94% 29.88 in 10.0 mi SSE 4.6 mph - N/A   Mostly Cloudy
6:53 AM 66.9 °F - 64.9 °F 93% 29.88 in 10.0 mi South 3.5 mph - N/A   Scattered Clouds
7:14 AM 66.2 °F - 64.4 °F 94% 29.92 in 10.0 mi West 3.5 mph - N/A   Mostly Cloudy
7:53 AM 68.0 °F - 66.0 °F 93% 29.91 in 10.0 mi Calm Calm - N/A   Overcast
8:51 AM 69.8 °F - 66.2 °F 88% 29.93 in 10.0 mi Calm Calm - 0.01 in   Mostly Cloudy
8:53 AM 69.1 °F - 66.0 °F 90% 29.92 in 10.0 mi SSW 3.5 mph - 0.01 in   Mostly Cloudy
9:05 AM 69.8 °F - 66.2 °F 88% 29.94 in 10.0 mi Variable 3.5 mph - N/A   Mostly Cloudy
9:30 AM 71.6 °F - 66.2 °F 83% 29.92 in 10.0 mi Calm Calm - N/A   Mostly Cloudy
9:44 AM 71.6 °F - 66.2 °F 83% 29.91 in 10.0 mi Calm Calm - N/A   Overcast
9:53 AM 71.1 °F - 66.0 °F 84% 29.90 in 10.0 mi Calm Calm - N/A   Overcast
10:31 AM 71.6 °F - 66.2 °F 83% 29.93 in 10.0 mi South 3.5 mph - N/A   Mostly Cloudy
10:53 AM 73.0 °F - 68.0 °F 84% 29.91 in 10.0 mi South 4.6 mph - N/A   Scattered Clouds
11:45 AM 75.2 °F - 66.2 °F 73% 29.93 in 10.0 mi WSW 9.2 mph - N/A   Mostly Cloudy
11:53 AM 75.9 °F - 68.0 °F 76% 29.92 in 10.0 mi SSW 6.9 mph - N/A   Mostly Cloudy
12:02 PM 75.2 °F - 66.2 °F 73% 29.94 in 10.0 mi WSW 6.9 mph - N/A   Mostly Cloudy
12:53 PM 77.0 °F - 66.9 °F 71% 29.92 in 10.0 mi WSW 5.8 mph - N/A   Overcast
1:53 PM 78.1 °F - 66.0 °F 66% 29.92 in 10.0 mi WSW 6.9 mph - N/A   Overcast
2:45 PM 73.4 °F - 68.0 °F 83% 29.92 in 2.5 mi Calm Calm - 0.03 in Rain Light Rain
2:53 PM 75.0 °F - 70.0 °F 84% 29.90 in 10.0 mi North 3.5 mph - 0.04 in   Overcast
3:53 PM 79.0 °F - 69.1 °F 72% 29.88 in 10.0 mi SW 9.2 mph - N/A   Scattered Clouds
4:53 PM 80.1 °F 82.9 °F 69.1 °F 69% 29.86 in 10.0 mi WSW 3.5 mph - N/A   Scattered Clouds
5:53 PM 81.0 °F 84.1 °F 69.1 °F 67% 29.83 in 10.0 mi SSW 6.9 mph - N/A   Partly Cloudy
6:53 PM 80.1 °F 82.9 °F 69.1 °F 69% 29.83 in 10.0 mi South 4.6 mph - N/A   Clear
7:53 PM 79.0 °F - 68.0 °F 69% 29.83 in 10.0 mi SSE 5.8 mph - N/A   Clear
8:53 PM 75.9 °F - 69.1 °F 79% 29.82 in 10.0 mi SE 4.6 mph - N/A   Scattered Clouds
9:53 PM 75.0 °F - 69.1 °F 82% 29.82 in 10.0 mi SSE 3.5 mph - N/A   Scattered Clouds
10:30 PM 75.2 °F - 68.0 °F 78% 29.86 in 10.0 mi SW 11.5 mph 18.4 mph N/A Thunderstorm Mostly Cloudy
10:47 PM 71.6 °F - 66.2 °F 83% 29.87 in 1.8 mi WSW 6.9 mph 17.3 mph 0.16 in Rain , Thunderstorm Heavy Rain
10:50 PM 69.8 °F - 66.2 °F 88% 29.86 in 1.0 mi SW 4.6 mph - 0.25 in Rain , Thunderstorm Heavy Rain
10:53 PM 70.0 °F - 66.0 °F 87% 29.84 in 0.8 mi SW 4.6 mph - 0.31 in Rain , Thunderstorm Heavy Rain
10:56 PM 69.8 °F - 66.2 °F 88% 29.86 in 1.0 mi Variable 3.5 mph - 0.02 in Rain Heavy Rain
11:00 PM 69.8 °F - 66.2 °F 88% 29.86 in 1.8 mi Calm Calm - 0.02 in Rain Rain
11:02 PM 69.8 °F - 66.2 °F 88% 29.86 in 3.0 mi Calm Calm - 0.03 in Rain Light Rain
11:53 PM 69.1 °F - 66.9 °F 93% 29.81 in 9.0 mi Calm Calm - 0.05 in   Overcast